Regional Weather Roundup
Issued by NWS Wakefield, VA

Home | Current Version | Previous Version | Text Only | Print | Product List | Glossary Off
Versions: 1 2 3 4 5 6 7 8 9 10 11 12 13 14 15 16 17 18 19 20 21 22 23 24 25 26 27

000
ASUS41 KAKQ 261415
RWRAKQ

REGIONAL WEATHER ROUNDUP
NATIONAL WEATHER SERVICE WAKEFIELD VA
1000 AM EDT TUE JUL 26 2016

Note: "fair" indicates few or no clouds below 12,000 feet with no
significant weather and/or obstructions to visibility. * = Denotes
station may not report precipitation (e.g., rain,snow,etc.),
thunder or fog.

VAZ042-051-052>054-056-261500-
NORTHERN VIRGINIA

CITY           SKY/WX    TMP DP  RH WIND       PRES   REMARKS
WASH NATIONAL  PTSUNNY   89  72  56 NW12      29.97S HX  96
DULLES         FAIR      88  70  55 NW9       29.98S
FORT BELVOIR   FAIR      88  72  60 VRB6      29.96S
QUANTICO       NOT AVBL
FREDERICKSBRG* FAIR      89  74  61 N7        29.96S HX  97
STAFFORD*      FAIR      89  72  57 N5        30.01S HX  95
WARRENTON      FAIR      89  69  51 N6        29.98S
CULPEPER*      FAIR      87  76  70 CALM      29.99S HX  96
MANASSAS*      SUNNY     88  72  58 N6        29.98S
LEESBURG*      FAIR      86  73  66 NW5       30.00S
WINCHESTER     FAIR      82  72  69 NW10      30.01S
FRONT ROYAL*   FAIR      84  73  70 CALM      30.01S
LURAY*         FAIR      81  75  83 CALM      30.02F
$$

VAZ048-049-060>072-079>083-261500-
CENTRAL AND SOUTH CENTRAL VIRGINIA

CITY           SKY/WX    TMP DP  RH WIND       PRES   REMARKS
RICHMOND       PTSUNNY   88  76  67 VRB5      29.97S HX  99
CHESTERFIELD*  FAIR      90  66  45 CALM      29.99S
PETERSBURG*    FAIR      88  75  65 NW5       29.98S HX  98
HANOVER        FAIR      89  73  59 CALM      29.99S HX  97
TAPPAHANNOCK*  FAIR      91  70  50 N7        29.97S HX  96
QUINTON*       FAIR      85  78  77 NW3       29.96S HX  96
CHARLOTTSVILLE FAIR      90  74  59 CALM      30.00S HX  99
GORDONSVILLE*  FAIR      87  76  71 CALM      29.99R HX  97
ORANGE*          N/A     88  73  62 CALM      30.01R HX  96
LOUISA*        FAIR      90  79  70 CALM      29.98S HX 105
BUMPASS*       FAIR      86  76  71 CALM      29.99S HX  97
FARMVILLE*     FAIR      90  74  60 NE3       29.98S HX  99
CREWE*         FAIR      87  77  70 NW5       29.98S HX  99
FORT PICKETT*  FAIR      86  78  75 CALM      29.99S HX  98
CHASE CITY*    FAIR      85  76  75 W6        30.00S
CLARKSVILLE*   FAIR      86  75  70 W5        29.99S HX  95
SOUTH HILL*    FAIR      85  75  71 W5        30.05S
LAWRENCEVILLE* FAIR      86  76  71 W5        29.98S HX  96
EMPORIA*       FAIR      86  73  66 W5        29.99S
$$

VAZ088>098-261500-
SOUTHEAST VIRGINIA

CITY           SKY/WX    TMP DP  RH WIND       PRES   REMARKS
NORFOLK        FAIR      88  74  63 W9        29.96R HX  96
VIRGINIA BEACH FAIR      92  74  55 W13       29.94S HX 101
NORFOLK NAVAL  FAIR      86  74  67 W10       29.97S
WEST POINT*    FAIR      87  76  70 W5        29.97S HX  97
SALUDA*        FAIR      86  78  77 NW6       29.95S HX  99
NEWPORT NEWS   FAIR      87  77  72 NW10      29.96S HX  99
LANGLEY AFB    MOSUNNY   87  77  73 W7        29.95S HX  98
FORT EUSTIS    FAIR      88  77  69 W6        29.94S HX 100
WILLIAMSBURG*  FAIR      90  77  66 W6        29.97S HX 102
HR EXEC AP*    FAIR      86  75  70 W8        29.98F HX  95
FRANKLIN*      FAIR      85  75  71 W7        29.97F
US460-WAKEFLD  FAIR      86  75  69 VRB6      29.97S HX  95
$$

VAZ020-022-025-037-045-261500-
WEST CENTRAL AND SOUTHWEST VIRGINIA

CITY           SKY/WX    TMP DP  RH WIND       PRES   REMARKS
STAUNTON*      FAIR      81  72  74 CALM      30.06S
WAYNESBORO*    FAIR      83  70  64 NW5       30.06S
HOT SPRINGS VA FAIR      73  73 100 NW7       30.20S
LYNCHBURG      FAIR      86  73  65 NW5       30.04R
DANVILLE       FAIR      85  73  67 W7        30.01F
SOUTH BOSTON*  FAIR      86  77  73 W5        30.00F HX  97
MARTINSVILLE   FAIR      85  73  67 N3        30.06F
ROANOKE        FAIR     N/A N/A N/A W7        30.07S
BLACKSBURG     FAIR      80  72  75 NW6       30.15S
DUBLIN*        FAIR      80  71  73 CALM      30.14S
MARION*        FAIR      78  71  77 SW8       30.18F
HILLSVILLE*    FAIR      77  70  78 W8        30.15F
RICHLANDS*     PTSUNNY   75  71  88 NW5       30.18S
WISE*          FAIR      77  68  73 W5        30.18S
ABINGDON*      FAIR      80  72  77 W8        30.15S
$$

MDZ021>025-VAZ099-100-261500-
SOUTHERN MARYLAND AND THE DELMARVA PENINSULA

CITY           SKY/WX    TMP DP  RH WIND       PRES   REMARKS
PATUXENT RIVER PTSUNNY   85  76  74 W5        29.95S
BAY BRIDGE APT MOSUNNY   82  75  78 N5        29.95S
LEONARDTOWN    NOT AVBL
DOVER          MOSUNNY   84  76  76 N10       29.94R
GEORGETOWN     PTSUNNY   83  74  74 N5        29.96R
EASTON         MOSUNNY   84  81  89 N5        29.99R HX  98
CAMBRIDGE      MOSUNNY   82  75  78 N3        29.95S
SALISBURY      MOSUNNY   84  77  79 N6        29.95R
OCEAN CITY     MOSUNNY   84  75  74 NE6       29.95R
WALLOPS ISLAND PTSUNNY   87  77  72 N7        29.95R HX  99
ACCOMACK*      PTSUNNY   88  77  70 CALM      29.95S HX 100
$$

NCZ012>017-030>032-261500-
NORTH CENTRAL AND EASTERN NORTH CAROLINA

CITY           SKY/WX    TMP DP  RH WIND       PRES   REMARKS
ROANOKE RAPIDS FAIR      84  73  70 W10       29.98F
RALEIGH        PTSUNNY   85  73  67 W8        30.02S
ELIZABETH CITY SUNNY     86  75  69 W12       29.97F HX  95
AHOSKIE*       SUNNY     84  76  77 CALM      29.98S
EDENTON*       SUNNY     88  74  63 W7        29.99F HX  95
CURRITUCK*     SUNNY     86  75  68 SW10      29.97S HAZE    HX  95
KILL DEVIL HLS SUNNY     88  74  63 W12       29.97S HX  97
MANTEO           N/A     85  76  74 W13       29.98F
CAPE HATTERAS  SUNNY     83  75  77 W10       30.01F
TARBORO*       FAIR      86  75  70 SW7       30.00S
GOLDSBORO      NOT AVBL
WASHINGTON     MOSUNNY   82  74  76 SW8       30.01S
GREENVILLE     SUNNY     86  77  74 W10       30.02S HX  97
NEW BERN       MOSUNNY   84  74  71 SW8       30.03F
WILMINGTON     MOSUNNY   84  73  69 SW13G20   30.05S
$$

VAZ048-261500-
ELSEWHERE

CITY           SKY/WX    TMP DP  RH WIND       PRES   REMARKS
HARRISBURG PA  MOSUNNY   81  76  84 NW6       29.97S
BALTIMORE      PTSUNNY   87  71  58 NW5       29.95F
ANNAPOLIS      MOSUNNY   85  75  72 NW5       29.95S
ANDREWS AFB    FAIR      86  73  66 NW7G70    29.96S
PHILADELPHIA   PTSUNNY   84  70  62 N9        29.95S
GREENSBORO     CLOUDY    86  72  62 VRB6      30.03F
ROCKY MOUNT    SUNNY     84  75  74 SW8       30.00F
$$

VAZ100-261500-
MARINE

STATION/POSITION TIME  TEMP    WIND        PRES    WAVE   SWELL
                       AIR SEA DIR/SP/G            HT/PER HT/PER
                 (UTC) (F)     (DEG/KT/KT) (MB)    (FT/S) (FT/S)
BRANDYWINE LGT   1300   79     350/  8/  9   N/A
CAPE MAY NJ      1300   82 74  340/  4/  5 1013.5R
LEWES DE         1300   78 72  340/  5/  6 1013.8R
OCEAN-CITY-INLET 1300   76 76   80/  4/  4 1014.2R
WACHAPREAGUE VA  1300   87 87  290/  2/ 10 1013.7R
THOMAS POINT MD  1400   82 83   20/  6/  6 1015.6F
GOOSES REEF MD   1400   82 84   10/  6/  8 1015.3R   1/ 2
COVE POINT MD    1300   80     350/ 10/ 11 1014.9R
SOLOMONS ISLAND  1300   81 84  330/  4/  5   N/A
BISHOPS HEAD MD  1300   82 86  350/  4/  6 1014.3R
PINEY POINT MD   1300          350/  6/  6   N/A
POTOMAC MD       1400   84 86   20/  6/  8 1013.1S   1
CAMBRIDGE MD     1300   81 86   10/  5/  8 1013.3R
LEWISETTA VA     1300   83 85  350/  6/  9 1013.9R
RAPPAHANNOCK LGT 1300          290/ 14/ 15 1014.5R
STINGRAY PT      1400   85 85  240/ 10/ 12 1014.4S   1
YORK RVR RNG VA  1300   83     280/ 14/ 15 1013.5R
YORKTOWN VA      1300   83 83  270/  9/ 12 1013.9R
JAMESTOWN VA     1400   84 88  280/  8/ 10   N/A
DOMINION TERM VA 1300   83     280/ 12/ 13 1014.4R
KIPTOPEKE VA     1300      82  280/  8/ 12   N/A
CHES BAY BRIDGE  1300   81 80  250/ 13/ 14 1014.1R
CAPE HENRY VA    1300   84     260/ 11/ 15   N/A
WILLOUBY STN VA  1300   82     260/ 11/ 13   N/A
CAPE HENRY BUOY  1312      71                N/A     2/ 4
1ST LANDING BUOY 1400   82 80  260/ 12/ 14 1013.9S
CAPE CHARLES BUO 1326      63                N/A     2/ 3
OFFSHORE WE BUOY 1321      80                N/A     3/ 6
64NM E OF VA BCH 1350   81 81  250/ 16/ 19 1014.0F   4/ 6   2/ 9
DUCK PIER NC     1300   82 61  250/ 15/ 19 1014.4F
44100 DUCK FRF   1305      73                N/A     2/ 3
44056 DUCK FRF   1311      64                N/A     1/ 9
OREGON INLET NC  1300   82 84  230/ 16/ 19 1015.3F
HATTERAS NC      1300   82 83  230/ 10/ 15 1016.2S
DIAMOND SHLS NC  1350   83 84  250/ 17/ 21 1016.4F   4/ 6
CAPE LOOKOUT NC  1400   83     250/ 18/ 22 1016.7F
$$




USA.gov is the U.S. government's official web portal to all federal, state and local government web resources and services.